Regional Weather Roundup
Issued by NWS

Home | Current Version | Previous Version | Text Only | Print | Product List | Glossary On
Versions: 1 2 3 4 5 6 7 8 9 10 11 12 13 14 15 16 17 18 19 20 21 22 23 24 25 26 27 28 29 30 31 32 33 34 35 36 37 38 39 40 41 42 43 44 45 46 47 48 49 50
000
ASUS43 KMPX 281401
RWRMN
WEATHER ROUNDUP FOR MINNESOTA
NATIONAL WEATHER SERVICE TWIN CITIES/CHANHASSEN MN
900 AM CDT MON JUL 28 2014


NOTE: "FAIR" INDICATES FEW OR NO CLOUDS BELOW 12,000 FEET WITH NO
SIGNIFICANT WEATHER AND/OR OBSTRUCTIONS TO VISIBILITY. N/A MEANS
CURRENT SKY AND/OR WEATHER CONDITIONS ARE NOT AVAILABLE.

MNZ060>063-068>070-281500-
   Twin Cities Metro

CITY           SKY/WX    TMP DP  RH WIND       PRES   REMARKS
TWIN CITIES    CLOUDY    65  57  75 N7        30.20R
ST PAUL        CLOUDY    65  57  75 N5        30.20R
CRYSTAL        CLOUDY    66  56  70 NW5       30.19R
BLAINE         CLOUDY    64  59  82 N3        30.20R
LAKEVILLE      PTSUNNY   64  57  77 NW8       30.20S
EDEN PRAIRIE   CLOUDY    66  57  72 N8        30.19R
SOUTH ST PAUL  CLOUDY    65  56  73 N5        30.20R
LAKE ELMO      CLOUDY    63  59  88 CALM      30.21R
$$
MNZ001>005-007-008-013>017-022>024-027-028-281500-
   Northwest Minnesota

CITY           SKY/WX    TMP DP  RH WIND       PRES   REMARKS
BEMIDJI        SUNNY     62  56  80 NW6       30.24S
HALLOCK        SUNNY     63  55  77 NW6       30.27S
ROSEAU         SUNNY     63  55  77 NW7       30.25S
WARROAD        SUNNY     63  57  82 W5        30.25S
THIEF RVR FALL CLOUDY    63  55  77 NW8       30.27R
CROOKSTON      CLOUDY    63  57  82 NW6       30.28R
FOSSTON        CLOUDY    61  55  82 NW7       30.27R
DETROIT LAKES  PTSUNNY   59  55  88 NW6       30.28R
MOORHEAD       CLOUDY    61  61 100 N5        30.28S
PARK RAPIDS    CLOUDY    62  56  80 NW7       30.24S
$$
MNZ006-009>011-018-025>026-281500-
   North Central Minnesota

CITY           SKY/WX    TMP DP  RH WIND       PRES   REMARKS
BAUDETTE       SUNNY     65  60  84 NW8       30.23S
FLAG ISLAND    SUNNY     61  55  82 NW7       30.22S
INTL FALLS     SUNNY     64  58  80 NW6       30.20S
WASKISH        SUNNY     64  61  88 CALM      30.23S
BIG FORK       SUNNY     63  55  77 NW2       30.22S
LONGVILLE      SUNNY     64  55  72 N5        30.22S
GRAND RAPIDS   SUNNY     63  54  72 NW5       30.22S
CRANE LAKE     SUNNY     61  57  88 NW5       30.20S
ORR            SUNNY     61  52  72 NW6       30.18S
COOK           SUNNY     61  54  77 W7        30.21R
$$
MNZ012-019>021-037-281500-
   Northeast Minnesota

CITY           SKY/WX    TMP DP  RH WIND       PRES   REMARKS
DULUTH         MOSUNNY   64  54  69 NW7       30.18S
ELY            SUNNY     63  54  72 NW8       30.17S
HIBBING        SUNNY     65  54  67 NW10      30.21R
EVELETH        SUNNY     63  52  67 NW8       30.21R
DULUTH HARBOR  SUNNY     66  55  68 NW5       30.17S
TWO HARBORS    SUNNY     63  54  72 NW5       30.15S
SILVER BAY     SUNNY     64  55  72 NW6       30.14S
GRAND MARAIS     N/A     69  55  60 VRB3      30.10S
G MARAIS ARPRT   N/A     61  52  72 NW7       30.14S
$$
MNZ029>031-032-039>041-046>048-054>057-064-281500-
   West Central Minnesota

CITY           SKY/WX    TMP DP  RH WIND       PRES   REMARKS
FERGUS FALLS   CLOUDY    61  55  82 NW8       30.27S
MORRIS         PTSUNNY   63  61  94 NW7       30.26R
ALEXANDRIA     CLOUDY    62  57  83 NW6       30.27R
ELBOW LAKE     CLOUDY    60  58  93 NW8       30.27R
WADENA         CLOUDY    61  57  88 NW7       30.24S
GLENWOOD       CLOUDY    63  59  88 N6        30.26R
APPLETON       PTSUNNY   64  57  77 N8        30.26R
BENSON         CLOUDY    64  61  88 N7        30.26R
ORTONVILLE     CLOUDY    64  55  72 N8        30.27S
MADISON        MOSUNNY   66  61  82 N8        30.27R
WILLMAR        FAIR      66  59  77 N7        30.26R
$$
MNZ033>034-036-042>043-049>051-058-059-281500-
   Central Minnesota

CITY           SKY/WX    TMP DP  RH WIND       PRES   REMARKS
ST CLOUD       CLOUDY    66  58  75 N8        30.21S
SAUK CENTRE    CLOUDY    62  57  85 NW7       30.25R
PAYNESVILLE    CLOUDY    60  56  85 W6        30.25R
AITKIN         SUNNY     66  57  72 NW5       30.21R
PINE RIVER     MOSUNNY   66  57  72 N6        30.25S
BRAINERD       PTSUNNY   66  58  75 N6        30.23R
STAPLES        CLOUDY    63  55  77 NW6       30.24S
LONG PRAIRIE   CLOUDY    61  55  82 NW7       30.25R
LITTLE FALLS   CLOUDY    63  54  72 NW6       30.23R
LITCHFIELD     CLOUDY    64  63  94 NW6       30.24R
BUFFALO        CLOUDY    66  57  73 N5        30.22S
MAPLE LAKE     CLOUDY    66  60  82 NW5       30.22S
$$
MNZ037-044-045-052-053-281500-
   East Central Minnesota

CITY           SKY/WX    TMP DP  RH WIND       PRES   REMARKS
PRINCETON      CLOUDY    66  59  77 CALM      30.21S
MORA           CLOUDY    63  55  77 NW3       30.22S
CAMBRIDGE      CLOUDY    66  54  63 NW6       30.19R
RUSH CITY      CLOUDY    62  56  81 NW3       30.20S
MOOSE LAKE     CLOUDY    63  55  77 NW3       30.18S
HINCKLEY       CLOUDY    63  55  77 NW5       30.19S
CLOQUET        SUNNY     63  55  77 NW6       30.19S
MCGREGOR       PTSUNNY   63  57  82 NW7       30.21S
$$
MNZ071>073-080-081-089-090-097-098-281500-
   Southwest Minnesota

CITY           SKY/WX    TMP DP  RH WIND       PRES   REMARKS
MONTEVIDEO     CLOUDY    64  63  94 N6        30.26S
GRANITE FALLS  CLOUDY    63  60  89 NW7       30.26S
CANBY          CLOUDY    64  58  80 NW10      30.28S
MARSHALL       CLOUDY    63  57  82 NW8       30.26R
REDWOOD FALLS  CLOUDY    64  61  90 NW6       30.24R
OLIVIA         CLOUDY    63  59  88 NW6       30.23S
PIPESTONE      CLOUDY    63  57  82 N8        30.28R
WINDOM         CLOUDY    64  59  82 NW7       30.25S
WORTHINGTON    CLOUDY    61  57  88 N10       30.27R
JACKSON        CLOUDY    63  57  82 N8        30.25S
TRACY          CLOUDY    63  61  92 CALM      30.27R
SLAYTON        CLOUDY    61  58  92 CALM      30.28R
$$
MNZ065>067-074>077-082>085-091>093-281500-
   South Central Minnesota

CITY           SKY/WX    TMP DP  RH WIND       PRES   REMARKS
MANKATO        CLOUDY    64  57  77 NW8       30.22R
NEW ULM        MOSUNNY   64  63  94 NW9       30.23R
ST JAMES       PTSUNNY   66  61  82 NW6       30.25R
FAIRMONT       CLOUDY    64  57  77 NW7       30.24R
GLENCOE        PTSUNNY   64  59  81 NW5       30.22R
FARIBAULT      CLOUDY    66  57  72 NW5       30.21R
OWATONNA       CLOUDY    64  59  82 NW8       30.21S
WASECA         CLOUDY    61  55  82 NW5       30.23S
ALBERT LEA     CLOUDY    64  59  82 NW5       30.21S
$$
MNZ078>079-086>088-094>096-281500-
   Southeast Minnesota

CITY           SKY/WX    TMP DP  RH WIND       PRES   REMARKS
ROCHESTER      SUNNY     64  57  78 N6        30.22R
RED WING       CLOUDY    64  59  82 CALM      30.18S
STANTON        CLOUDY    66  57  74 N5        30.19R
DODGE CENTER   PTSUNNY   64  59  82 N7        30.20S
WINONA         MOSUNNY   64  55  72 N3        30.18R
AUSTIN         CLOUDY    64  57  77 N6        30.20S
PRESTON        CLOUDY    60  60  99 NW5       30.20S
$$
ABBREVIATIONS USED IN REMARKS
   TC - TEMPERATURES IN CELSIUS
  WCI - WIND CHILL INDEX
   HX - HEAT INDEX
  VSB - VISIBILITY
$$


USA.gov is the U.S. government's official web portal to all federal, state and local government web resources and services.